DateTimeUTC,F1_A11,F1_S11,BsB_S11,BsG_S11,BsR_S11,BbsB_S11,BbsG_S11,BbsR_S11,BaB_A11,BaG_A11,BaR_A11,Tu_S11,T_S11,Uu_S11,U_S11,P_S11,T1_A11
2021-01-09T14:00:00Z,00000200,21010000,,,,,,,-000.18,0000.18,-000.23,15.2,22.3,,00.0,0640.0,30.8
2021-01-09T14:01:00Z,00000200,21000000,,,,,,,-000.10,-000.26,-000.06,15.1,22.3,,00.0,0640.0,30.7
2021-01-09T14:02:00Z,00000200,21000000,,,,,,,0000.10,0000.06,0000.00,15.1,22.3,,00.0,0640.0,30.7
2021-01-09T14:03:00Z,00000200,61000000,,,,,,,-000.04,0000.01,-000.11,15.1,22.3,,00.0,0640.0,30.7
2021-01-09T14:04:00Z,00000200,41000000,0000.57,0000.07,0000.26,0000.17,0000.39,0000.05,-000.02,-000.22,0000.42,15.1,22.0,,00.0,0640.9,30.7
2021-01-09T14:05:00Z,00000200,01000000,0000.12,0000.32,-000.00,0000.08,0000.18,0000.08,0000.09,0000.26,-000.53,15.1,21.9,,00.0,0640.9,30.7
2021-01-09T14:06:00Z,00000200,01000000,-000.12,0000.15,0000.00,0000.04,-000.09,0000.06,0000.10,0000.03,0000.46,15.1,21.9,,00.0,0640.9,30.7
2021-01-09T14:07:00Z,00000200,01000000,0000.68,-000.03,0000.16,0000.16,0000.20,0000.12,0000.34,0000.08,0000.17,15.2,21.9,,00.0,0640.9,30.7
2021-01-09T14:08:00Z,00000200,01000000,0000.56,0000.19,0000.29,0000.17,-000.04,0000.29,0000.13,0000.34,0000.25,15.2,21.9,,00.0,0640.8,30.7
2021-01-09T14:09:00Z,00000200,01000000,0000.07,0000.22,0000.09,0000.26,0000.18,-000.01,0000.07,-000.03,-000.04,15.3,21.9,,00.0,0640.8,30.7
2021-01-09T14:10:00Z,00000200,01000000,0000.10,0000.03,-000.26,0000.22,-000.05,-000.06,0000.34,0000.31,0000.05,15.3,21.9,,00.0,0640.8,30.7
2021-01-09T14:11:00Z,00000200,01000000,0000.49,0000.49,0000.26,0000.65,0000.08,0000.24,-000.13,-000.13,0000.11,15.4,21.9,,00.0,0640.8,30.8
2021-01-09T14:12:00Z,00000200,01000000,0000.69,0000.10,-000.05,0000.05,0000.15,-000.16,0000.12,0000.31,0000.13,15.4,22.0,,00.0,0640.8,30.8
2021-01-09T14:13:00Z,00000200,01000000,0000.82,-000.12,0000.07,0000.03,0000.17,-000.04,-000.29,-000.04,0000.09,15.5,22.0,,00.0,0640.8,30.8
2021-01-09T14:14:00Z,00000200,01000000,0000.19,0000.13,0000.10,0000.30,0000.14,0000.11,0000.13,0000.04,0000.21,15.6,22.0,,00.0,0640.8,30.8
2021-01-09T14:15:00Z,00000200,01000000,0000.29,0000.16,0000.02,-000.23,0000.16,-000.20,0000.26,-000.01,-000.34,15.6,22.1,,00.0,0640.8,30.8
2021-01-09T14:16:00Z,00000200,01000000,0000.16,0000.34,0000.04,0000.43,0000.16,0000.01,0000.04,0000.13,0000.02,15.7,22.1,,00.0,0640.9,30.8
2021-01-09T14:17:00Z,00000200,01000000,0000.01,-000.01,-000.12,-000.09,0000.13,-000.02,-000.01,-000.03,0000.00,15.7,22.1,,00.0,0640.9,30.8
2021-01-09T14:18:00Z,00000200,01000000,-000.27,0000.19,0000.20,0000.27,0000.12,0000.10,-000.26,-000.12,-000.13,15.6,22.1,,00.0,0640.8,30.8
2021-01-09T14:19:00Z,00000200,01000000,0000.48,0000.13,-000.03,0000.11,0000.16,0000.13,0000.05,-000.28,-000.02,15.5,22.1,,00.0,0640.8,30.7
2021-01-09T14:20:00Z,00000200,01000000,-000.25,0000.13,0000.17,-000.06,-000.11,0000.12,0000.40,0000.17,-000.07,15.5,22.0,,00.0,0640.8,30.7
2021-01-09T14:21:00Z,00000200,01000000,0000.41,0000.17,0000.06,0000.91,0000.09,0000.09,-000.21,0000.07,0000.21,15.5,22.0,,00.0,0640.8,30.7
2021-01-09T14:22:00Z,00000200,01000000,-000.12,0000.28,0000.14,0000.40,0000.28,0000.21,0000.20,0000.15,0000.21,15.5,22.0,,00.0,0640.9,30.7
2021-01-09T14:23:00Z,00000200,01000000,0000.98,-000.04,0000.07,0000.10,0000.10,0000.11,0000.23,0000.26,0000.01,15.5,22.0,,00.0,0640.9,30.7
2021-01-09T14:24:00Z,00000200,01000000,-000.07,0000.01,0000.08,0000.25,0000.20,0000.04,-000.13,0000.10,0000.41,15.6,22.0,,00.0,0640.9,30.7
2021-01-09T14:25:00Z,00000200,01000000,0000.06,0000.14,0000.09,0000.15,-000.11,0000.21,0000.60,0000.37,0000.03,15.6,22.1,,00.0,0640.9,30.8
2021-01-09T14:26:00Z,00000200,01000000,0000.10,0000.19,0000.26,0000.51,0000.04,-000.01,-000.32,-000.48,-000.28,15.7,22.1,,00.0,0640.9,30.8
2021-01-09T14:27:00Z,00000200,01000000,0000.26,0000.27,-000.30,-000.20,0000.17,-000.07,0000.04,0000.22,0000.37,15.7,22.1,,00.0,0640.9,30.8
2021-01-09T14:28:00Z,00000200,01000000,0000.62,-000.18,0000.14,0000.28,0000.08,0000.04,-000.12,0000.07,-000.27,15.8,22.2,,00.0,0640.9,30.8
2021-01-09T14:29:00Z,00000200,01000000,0000.13,0000.01,0000.14,0000.37,-000.00,0000.42,0000.31,-000.25,-000.09,15.8,22.2,,00.0,0640.9,30.8
2021-01-09T14:30:00Z,00000200,01000000,-000.54,0000.06,0000.08,-000.22,-000.04,0000.09,-000.29,0000.05,-000.05,15.7,22.1,,00.0,0640.9,30.8
2021-01-09T14:31:00Z,00000200,01000000,-000.00,-000.03,0000.22,0000.22,0000.20,0000.29,0000.21,0000.01,0000.13,15.7,22.1,,00.0,0640.9,30.7
2021-01-09T14:32:00Z,00000200,01000000,0000.48,-000.09,0000.19,0000.11,-000.03,0000.10,0000.08,0000.03,-000.15,15.6,22.1,,00.0,0640.9,30.7
2021-01-09T14:33:00Z,00000200,01000000,0000.03,0000.19,-000.20,0000.18,-000.00,-000.10,-000.16,0000.23,0000.09,15.5,22.1,,00.0,0640.9,30.7
2021-01-09T14:34:00Z,00000200,01000000,0000.85,0000.23,0000.22,0000.38,0000.05,-000.08,0000.12,-000.33,-000.39,15.4,22.0,,00.0,0640.9,30.7
2021-01-09T14:35:00Z,00000200,01000000,0000.34,0000.16,0000.20,-000.04,-000.22,-000.05,-000.15,0000.08,0000.31,15.4,22.0,,00.0,0640.9,30.7
2021-01-09T14:36:00Z,00000200,01000000,0000.29,0000.00,0000.17,-000.00,0000.04,0000.03,0000.10,0000.07,0000.01,15.4,22.0,,00.0,0640.9,30.7
2021-01-09T14:37:00Z,00000200,01000000,-000.11,0000.12,0000.21,-000.13,-000.02,0000.03,-000.02,-000.03,0000.14,15.4,22.0,,00.0,0641.0,30.7
2021-01-09T14:38:00Z,00000200,01000000,0000.30,-000.00,-000.25,-000.29,-000.08,0000.21,0000.06,0000.45,-000.18,15.5,22.0,,00.0,0641.0,30.7
2021-01-09T14:39:00Z,00000200,01000000,0000.05,-000.15,0000.44,0000.47,-000.02,0000.10,0000.27,-000.15,0000.67,15.5,22.0,,00.0,0641.0,30.7
2021-01-09T14:40:00Z,00000200,01000000,-000.20,-000.05,-000.21,0000.21,0000.01,-000.02,0000.01,0000.53,-000.37,15.5,22.0,,00.0,0641.0,30.7
2021-01-09T14:41:00Z,00000200,01000000,0000.05,-000.10,0000.08,0000.63,0000.12,0000.05,0000.35,-000.22,0000.07,15.6,22.0,,00.0,0641.1,30.8
2021-01-09T14:42:00Z,00000200,01000000,0000.09,0000.29,0000.24,0000.53,0000.01,0000.22,-000.16,-000.08,0000.38,15.7,22.1,,00.0,0641.1,30.8
2021-01-09T14:43:00Z,00000200,01000000,0000.26,0000.20,0000.08,-000.37,-000.08,-000.17,-000.11,0000.31,-000.22,15.7,22.1,,00.0,0641.2,30.8
2021-01-09T14:44:00Z,00000200,01000000,0000.01,0000.34,0000.03,0000.38,0000.15,0000.08,0000.06,-000.32,-000.11,15.8,22.1,,00.0,0641.2,30.8
2021-01-09T14:45:00Z,00000200,01000000,0001.06,-000.13,0000.03,-000.21,0000.17,0000.19,-000.06,-000.01,0000.05,15.8,22.2,,00.0,0641.2,30.8
2021-01-09T14:46:00Z,00000200,01000000,0000.59,0000.46,0000.19,0000.32,-000.08,0000.04,0000.12,0000.13,-000.05,15.7,22.1,,00.0,0641.1,30.8
2021-01-09T14:47:00Z,00000200,01000000,0000.26,-000.00,0000.22,0000.13,0000.06,0000.06,0000.02,-000.13,-000.03,15.7,22.1,,00.0,0641.1,30.8
2021-01-09T14:48:00Z,00000200,01000000,0000.19,0000.28,0000.03,0000.22,0000.12,0000.12,-000.21,0000.06,-000.11,15.6,22.1,,00.0,0641.1,30.7
2021-01-09T14:49:00Z,00000200,01000000,-000.17,0000.00,-000.12,0000.19,-000.01,-000.05,0000.31,-000.31,0000.05,15.5,22.1,,00.0,0641.1,30.7
2021-01-09T14:50:00Z,00000200,01000000,0000.68,0000.11,-000.22,0000.33,0000.18,-000.02,-000.08,0000.16,0000.28,15.5,22.0,,00.0,0641.1,30.7
2021-01-09T14:51:00Z,00000200,01000000,-000.25,0000.36,-000.08,0000.34,0000.06,0000.02,0000.20,0000.46,-000.17,15.5,22.0,,00.0,0641.1,30.7
2021-01-09T14:52:00Z,00000200,01000000,0000.22,0000.10,0000.15,0000.08,0000.10,-000.03,0000.26,-000.03,0000.33,15.5,22.0,,00.0,0641.1,30.7
2021-01-09T14:53:00Z,00000200,01000000,-000.07,0000.40,0000.14,0000.38,0000.05,0000.15,-000.23,0000.32,-000.17,15.6,22.0,,00.0,0641.1,30.7
2021-01-09T14:54:00Z,00000200,01000000,0000.78,0000.03,0000.04,0000.81,0000.04,0000.11,0000.16,-000.25,0000.06,15.6,22.1,,00.0,0641.1,30.8
2021-01-09T14:55:00Z,00000200,01000000,0000.65,0000.15,0000.12,-000.19,0000.17,0000.09,0000.35,0000.18,0000.42,15.6,22.1,,00.0,0641.1,30.8
2021-01-09T14:56:00Z,00000200,01000000,0000.23,0000.11,0000.17,0000.41,0000.23,0000.17,-000.05,0000.10,-000.21,15.7,22.1,,00.0,0641.1,30.8
2021-01-09T14:57:00Z,00000200,41000000,,,,,,,-000.33,0000.05,0000.01,15.7,22.1,,00.0,0641.1,30.8
2021-01-09T14:58:00Z,00000200,61000000,,,,,,,0000.36,0000.03,0000.04,15.4,22.3,,00.0,0640.2,30.8
2021-01-09T14:59:00Z,00000200,21000000,,,,,,,-000.19,-000.35,-000.09,15.4,22.4,,00.0,0640.2,30.8
